EN

Hourly Weather Labuchy

Today, 30 July, Friday

Time Temperature Precipitation Wind Pressure Humidity
00:00 +17°C° 0 mm 2 mps 742 mmHg 78%
01:00 +16°C° 0 mm 2 mps 742 mmHg 80%
02:00 +16°C° 0 mm 2 mps 742 mmHg 81%
03:00 +14°C° 0 mm 3 mps 742 mmHg 83%
04:00 +14°C° 0 mm 3 mps 742 mmHg 84%
05:00 +16°C° 0 mm 3 mps 742 mmHg 78%
06:00 +18°C° 0 mm 4 mps 742 mmHg 71%
07:00 +19°C° 0 mm 4 mps 742 mmHg 65%
08:00 +20°C° 0 mm 5 mps 742 mmHg 59%
09:00 +21°C° 0 mm 6 mps 742 mmHg 53%
10:00 +22°C° 0 mm 7 mps 742 mmHg 48%
11:00 +23°C° 0 mm 7 mps 741 mmHg 45%
12:00 +23°C° 0 mm 7 mps 741 mmHg 43%
13:00 +24°C° 0 mm 7 mps 741 mmHg 41%
14:00 +24°C° 0 mm 6 mps 741 mmHg 42%
15:00 +24°C° 0 mm 6 mps 741 mmHg 43%
16:00 +25°C° 0 mm 5 mps 740 mmHg 44%
17:00 +23°C° 0 mm 4 mps 740 mmHg 51%
18:00 +21°C° 0 mm 3 mps 740 mmHg 57%
19:00 +19°C° 0 mm 2 mps 740 mmHg 64%
20:00 +18°C° 0 mm 3 mps 740 mmHg 64%
21:00 +17°C° 0 mm 3 mps 740 mmHg 64%
22:00 +17°C° 0 mm 3 mps 741 mmHg 65%
23:00 +16°C° 0 mm 3 mps 741 mmHg 66%

Tomorrow, 31 July, Saturday

Time Temperature Precipitation Wind Pressure Humidity
00:00 +14°C° 0 mm 3 mps 741 mmHg 68%
01:00 +15°C° 0 mm 2 mps 741 mmHg 69%
02:00 +14°C° 0 mm 2 mps 741 mmHg 70%
03:00 +14°C° 0 mm 2 mps 741 mmHg 71%
04:00 +14°C° 0 mm 2 mps 740 mmHg 72%
05:00 +14°C° 0 mm 3 mps 741 mmHg 69%
06:00 +17°C° 0 mm 3 mps 741 mmHg 66%
07:00 +19°C° 0 mm 3 mps 741 mmHg 63%
08:00 +21°C° 0 mm 3 mps 741 mmHg 59%
09:00 +22°C° 0 mm 3 mps 741 mmHg 55%
10:00 +25°C° 0 mm 3 mps 741 mmHg 51%
11:00 +26°C° 0 mm 3 mps 740 mmHg 49%
12:00 +27°C° 0 mm 4 mps 740 mmHg 47%
13:00 +28°C° 0 mm 4 mps 740 mmHg 46%
14:00 +27°C° 0 mm 4 mps 740 mmHg 50%
15:00 +27°C° 0 mm 4 mps 739 mmHg 55%
16:00 +26°C° 0 mm 4 mps 739 mmHg 59%
17:00 +24°C° 0.3 mm 3 mps 739 mmHg 66%
18:00 +22°C° 0.3 mm 3 mps 739 mmHg 72%
19:00 +20°C° 0.3 mm 2 mps 738 mmHg 79%
20:00 +19°C° 0 mm 3 mps 739 mmHg 80%
21:00 +18°C° 0 mm 3 mps 739 mmHg 81%
22:00 +17°C° 0 mm 3 mps 740 mmHg 82%
23:00 +17°C° 0 mm 3 mps 740 mmHg 83%

Day after tomorrow, 1 August, Sunday

Time Temperature Precipitation Wind Pressure Humidity
00:00 +16°C° 0 mm 3 mps 740 mmHg 83%
01:00 +14°C° 0 mm 3 mps 740 mmHg 84%
02:00 +14°C° 0 mm 3 mps 740 mmHg 83%
03:00 +13°C° 0 mm 3 mps 740 mmHg 83%
04:00 +13°C° 0 mm 3 mps 740 mmHg 82%
05:00 +14°C° 0 mm 3 mps 740 mmHg 79%
06:00 +17°C° 0 mm 4 mps 741 mmHg 75%
07:00 +18°C° 0 mm 4 mps 741 mmHg 72%
08:00 +20°C° 0 mm 4 mps 741 mmHg 66%
09:00 +21°C° 0 mm 4 mps 741 mmHg 61%
10:00 +22°C° 0 mm 4 mps 741 mmHg 55%
11:00 +22°C° 0 mm 4 mps 741 mmHg 56%
12:00 +22°C° 0 mm 4 mps 741 mmHg 56%
13:00 +22°C° 0 mm 4 mps 741 mmHg 57%
14:00 +21°C° 0.4 mm 4 mps 742 mmHg 67%
15:00 +19°C° 0.4 mm 4 mps 742 mmHg 77%
16:00 +18°C° 0.4 mm 4 mps 742 mmHg 87%
17:00 +17°C° 0.1 mm 3 mps 742 mmHg 88%
18:00 +17°C° 0.1 mm 3 mps 741 mmHg 90%
19:00 +17°C° 0.1 mm 2 mps 741 mmHg 91%
20:00 +16°C° 0 mm 2 mps 741 mmHg 92%
21:00 +15°C° 0 mm 2 mps 741 mmHg 93%
22:00 +15°C° 0 mm 2 mps 741 mmHg 94%
23:00 +14°C° 0 mm 2 mps 741 mmHg 95%

2 August, Monday

Time Temperature Precipitation Wind Pressure Humidity
00:00 +14°C° 0 mm 2 mps 741 mmHg 95%
01:00 +14°C° 0 mm 2 mps 741 mmHg 95%
02:00 +14°C° 0 mm 2 mps 741 mmHg 95%
03:00 +14°C° 0 mm 2 mps 741 mmHg 95%
04:00 +14°C° 0 mm 2 mps 741 mmHg 95%
05:00 +15°C° 0 mm 2 mps 741 mmHg 90%
06:00 +16°C° 0 mm 2 mps 741 mmHg 86%
07:00 +17°C° 0 mm 2 mps 741 mmHg 81%
08:00 +19°C° 0.1 mm 3 mps 741 mmHg 72%
09:00 +21°C° 0.1 mm 4 mps 741 mmHg 63%
10:00 +22°C° 0.1 mm 4 mps 741 mmHg 54%
11:00 +22°C° 0.3 mm 4 mps 741 mmHg 57%
12:00 +22°C° 0.3 mm 5 mps 741 mmHg 61%
13:00 +21°C° 0.3 mm 5 mps 741 mmHg 64%
14:00 +21°C° 0.4 mm 4 mps 741 mmHg 67%
15:00 +20°C° 0.4 mm 4 mps 741 mmHg 70%
16:00 +19°C° 0.4 mm 4 mps 742 mmHg 73%
17:00 +19°C° 0.3 mm 3 mps 742 mmHg 75%
18:00 +18°C° 0.3 mm 2 mps 742 mmHg 77%
19:00 +17°C° 0.3 mm 2 mps 742 mmHg 79%
20:00 +16°C° 0 mm 2 mps 743 mmHg 81%
21:00 +15°C° 0 mm 2 mps 743 mmHg 83%
22:00 +12°C° 0 mm 3 mps 743 mmHg 86%
23:00 +12°C° 0 mm 3 mps 743 mmHg 85%

3 August, Tuesday

Time Temperature Precipitation Wind Pressure Humidity
00:00 +12°C° 0 mm 3 mps 744 mmHg 85%
01:00 +11°C° 0 mm 3 mps 744 mmHg 85%
02:00 +11°C° 0 mm 3 mps 744 mmHg 85%
03:00 +11°C° 0 mm 3 mps 744 mmHg 85%
04:00 +11°C° 0 mm 3 mps 744 mmHg 86%
05:00 +12°C° 0 mm 4 mps 744 mmHg 81%
06:00 +14°C° 0 mm 4 mps 745 mmHg 77%
07:00 +15°C° 0 mm 5 mps 745 mmHg 72%
08:00 +17°C° 0 mm 5 mps 745 mmHg 66%
09:00 +19°C° 0 mm 5 mps 746 mmHg 60%
10:00 +21°C° 0 mm 5 mps 746 mmHg 54%
11:00 +22°C° 0.1 mm 5 mps 746 mmHg 51%
12:00 +22°C° 0.1 mm 5 mps 746 mmHg 48%
13:00 +23°C° 0.1 mm 4 mps 746 mmHg 45%
14:00 +22°C° 0 mm 4 mps 746 mmHg 51%
15:00 +21°C° 0 mm 3 mps 746 mmHg 57%
16:00 +20°C° 0 mm 2 mps 746 mmHg 63%
17:00 +19°C° 0 mm 2 mps 746 mmHg 66%
18:00 +19°C° 0 mm 1 mps 746 mmHg 68%
19:00 +18°C° 0 mm 1 mps 746 mmHg 71%
20:00 +18°C° 0 mm 1 mps 746 mmHg 74%
21:00 +16°C° 0 mm 1 mps 746 mmHg 76%
22:00 +15°C° 0 mm 1 mps 747 mmHg 79%
23:00 +15°C° 0 mm 1 mps 747 mmHg 78%

4 August, Wednesday

Time Temperature Precipitation Wind Pressure Humidity
00:00 +15°C° 0 mm 1 mps 747 mmHg 77%
01:00 +15°C° 0 mm 1 mps 747 mmHg 76%
02:00 +15°C° 0 mm 1 mps 747 mmHg 74%
03:00 +15°C° 0 mm 1 mps 747 mmHg 72%
04:00 +16°C° 0 mm 1 mps 747 mmHg 70%
05:00 +15°C° 0.6 mm 1 mps 747 mmHg 78%
06:00 +15°C° 0.6 mm 1 mps 747 mmHg 85%
07:00 +14°C° 0.6 mm 1 mps 748 mmHg 93%
08:00 +14°C° 1.1 mm 1 mps 747 mmHg 94%
09:00 +14°C° 1.1 mm 1 mps 747 mmHg 95%
10:00 +15°C° 1.1 mm 2 mps 747 mmHg 95%
11:00 +15°C° 1.1 mm 2 mps 747 mmHg 94%
12:00 +15°C° 1.1 mm 2 mps 747 mmHg 94%
13:00 +15°C° 1.1 mm 2 mps 747 mmHg 93%
14:00 +16°C° 0.3 mm 2 mps 747 mmHg 91%
15:00 +16°C° 0.3 mm 2 mps 747 mmHg 90%
16:00 +16°C° 0.3 mm 2 mps 747 mmHg 88%
17:00 +16°C° 0 mm 1 mps 747 mmHg 90%
18:00 +15°C° 0 mm 1 mps 747 mmHg 91%
19:00 +15°C° 0 mm 1 mps 746 mmHg 93%
20:00 +15°C° 0 mm 1 mps 746 mmHg 93%
21:00 +14°C° 0 mm 1 mps 746 mmHg 94%
22:00 +14°C° 0 mm 1 mps 746 mmHg 94%
23:00 +14°C° 0 mm 1 mps 746 mmHg 94%
Show more